DELTA 1 DEB, 10833

Orbit data source: Space-Track

DELTA 1 DEB, 10833 is space debris in SSO originally from a launch on Thu, 29 Jul 1976 UTC launched from the Air Force Western Test Range (AFWTR). Debris objects in space refer to the collection of defunct objects orbiting the Earth. Examples of debris include non-operational satellites, rocket bodies, and fragments generated from explosions, collisions, or faulty payload assembly.

Loading next visibility...
Identifier
10833, 1976-077CD
Orbit
SSO
Country
Flag of USUS
Related business
Manufacturer
Unknown
Mission
Spacecraft
Bus & Motor
Unknown
Mass
Unknown
Launch date (UTC)
1976-07-29 (50 years ago)
Launch vehicle
Unknown
Launch site
Air Force Western Test Range (AFWTR)
Object type
Payload
Rocket body
Debris
Shape & HBR
Unknown shape, 0.2 m
Radar Cross Section
Medium (>0.1 m² and <1 m²)

Expand to show TLE details & history
Last TLE update: 17 hours ago

TLE from 17 hours ago
0 DELTA 1 DEB
1 10833U 76077CD  26120.87131029  .00000203  00000-0  19436-2 0  9994
2 10833 102.1121  95.0199 0110178 234.4479 183.3594 12.34734446236573
Epoch: 2026-04-30T20:54Z
TLE epoch observation values (Epoch: 2026-04-30T20:54:41.209Z)
Latitude
55.85962°
Longitude
-95.82208°
Altitude
1,625.064 km
Speed
7.025 km/s
True Right ascension
05h 06m 38s
True Declination
55° 43' 01"
Sunlit
Object was in daylight at epoch
Visualization orbit readout
Latitude
Unknown
Longitude
Unknown
Altitude
Unknown
Speed
Unknown
Apparent Right ascension
Unknown
Apparent Declination
Unknown
Sunlit
N/A
Visualization observer readout
Local Sidereal Time
21:09:56
Azimuth
Unknown
Elevation
Unknown
Doppler factor
Unknown
Orbital elements
Apogee altitude
1,613.684 km
Perigee altitude
1,439.499 km
Semi-major axis
7,904.729 km
Eccentricity
0.01102
Inclination
102.1121°
RAAN
95.0199°
Arg. of periapsis
234.4479°
True anomaly
183.28642°
Mean anomaly
183.3594°
Eccentric anomaly
183.32281°
Mean motion
3.08825 °/min
Orbital period
116.57 mins
BSTAR
0.0019436
Loading maneuver chart data...
Computing Atmospheric mass density...
Loading historical data...
Loading historical data...
Loading historical data...
Loading historical data...
Loading historical data...
Loading historical data...
Loading historical data...

Documentation

Showing up to 5 results
|